TimeAST,TemperatureF,Dew PointF,Humidity,Sea Level PressureIn,VisibilityMPH,Wind Direction,Wind SpeedMPH,Gust SpeedMPH,PrecipitationIn,Events,Conditions,WindDirDegrees,DateUTC
12:56 AM,75.0,64.9,71,30.08,10.0,East,4.6,-,N/A,,Scattered Clouds,100,2012-03-15 04:56:00
1:56 AM,73.9,64.9,73,30.05,10.0,ESE,4.6,-,N/A,,Scattered Clouds,110,2012-03-15 05:56:00
2:56 AM,73.9,64.0,71,30.04,10.0,ESE,4.6,-,N/A,,Scattered Clouds,110,2012-03-15 06:56:00
3:56 AM,73.0,64.9,76,30.03,10.0,Calm,Calm,-,N/A,,Scattered Clouds,0,2012-03-15 07:56:00
4:56 AM,73.0,64.0,73,30.03,10.0,Calm,Calm,-,N/A,,Scattered Clouds,0,2012-03-15 08:56:00
5:56 AM,73.0,64.0,73,30.05,10.0,Calm,Calm,-,N/A,,Scattered Clouds,0,2012-03-15 09:56:00
6:56 AM,72.0,64.0,76,30.07,10.0,Calm,Calm,-,N/A,,Scattered Clouds,0,2012-03-15 10:56:00
7:56 AM,75.9,64.9,69,30.09,10.0,ESE,5.8,-,N/A,,Scattered Clouds,120,2012-03-15 11:56:00
8:10 AM,77.0,64.4,65,30.10,10.0,Variable,4.6,-,N/A,,Scattered Clouds,0,2012-03-15 12:10:00
8:56 AM,79.0,63.0,58,30.10,10.0,East,15.0,-,N/A,,Scattered Clouds,90,2012-03-15 12:56:00
9:56 AM,81.0,64.0,56,30.12,10.0,East,17.3,-,N/A,,Scattered Clouds,80,2012-03-15 13:56:00
10:56 AM,82.0,64.9,56,30.12,10.0,ENE,17.3,24.2,N/A,,Scattered Clouds,70,2012-03-15 14:56:00
11:56 AM,82.9,64.9,54,30.11,10.0,ENE,19.6,25.3,N/A,,Scattered Clouds,60,2012-03-15 15:56:00
12:56 PM,82.9,64.9,54,30.08,10.0,ENE,17.3,25.3,N/A,,Scattered Clouds,70,2012-03-15 16:56:00
1:56 PM,82.9,66.0,56,30.06,10.0,ENE,18.4,24.2,N/A,,Scattered Clouds,70,2012-03-15 17:56:00
2:56 PM,82.9,66.9,58,30.05,10.0,ENE,17.3,25.3,N/A,,Scattered Clouds,70,2012-03-15 18:56:00
3:56 PM,82.0,66.0,58,30.03,10.0,ENE,19.6,23.0,N/A,,Scattered Clouds,70,2012-03-15 19:56:00
4:56 PM,81.0,66.9,62,30.03,10.0,ENE,18.4,-,N/A,,Scattered Clouds,60,2012-03-15 20:56:00
5:56 PM,79.0,66.9,66,30.04,10.0,East,17.3,-,N/A,,Scattered Clouds,80,2012-03-15 21:56:00
6:56 PM,78.1,66.9,68,30.05,10.0,East,8.1,-,N/A,,Scattered Clouds,80,2012-03-15 22:56:00
7:56 PM,78.1,66.9,68,30.06,10.0,East,5.8,-,N/A,,Scattered Clouds,90,2012-03-15 23:56:00
8:56 PM,78.1,69.1,74,30.07,10.0,ESE,6.9,-,0.00,Rain,Light Rain,120,2012-03-16 00:56:00
9:56 PM,73.9,68.0,82,30.09,10.0,East,6.9,-,0.01,,Scattered Clouds,90,2012-03-16 01:56:00
10:56 PM,73.9,66.0,76,30.09,10.0,SE,3.5,-,N/A,,Scattered Clouds,130,2012-03-16 02:56:00
11:56 PM,75.0,66.9,76,30.08,10.0,East,4.6,-,N/A,,Mostly Cloudy,100,2012-03-16 03:56:00